Theta_e
315 314 313 314 314 314 314 313 313 313 313 313 313 314 313 313 313 312 304 309 312 322 320 312 310 310 311 310 312 312 304 301 301 302 305 311 311 315 315 313 314 316 316 320 322
316 315 314 313 314 314 314 313 313 313 313 313 313 312 312 312 311 306 318 312 319 322 315 310 306 308 306 308 309 307 303 303 307 307 306 308 309 309 308 309 310 312 316 318 320
315 315 315 314 313 313 313 312 313 312 313 312 312 311 311 313 309 312 326 318 322 323 315 313 310 308 304 307 307 307 302 307 307 309 309 308 308 310 307 306 310 310 313 316 317
315 316 315 313 313 313 313 312 312 312 312 312 311 310 312 312 301 315 327 322 325 318 314 309 308 304 303 302 307 302 306 307 307 308 308 306 308 306 308 308 312 312 313 314 315
316 316 315 314 313 313 312 313 312 312 311 311 311 310 312 305 304 328 325 325 319 315 311 308 305 305 302 304 304 302 304 305 307 306 307 307 305 305 306 310 312 313 313 313 315
316 316 315 314 313 313 312 312 312 312 312 312 311 311 309 298 310 325 320 322 319 315 308 308 305 307 303 303 303 304 304 304 305 305 306 304 304 306 307 310 310 311 312 313 314
315 316 316 314 313 313 313 313 312 312 312 313 312 313 306 301 312 324 321 314 313 310 310 313 311 307 307 302 306 304 300 303 304 305 304 306 302 303 307 308 308 309 311 312 313
315 315 315 315 314 313 313 313 312 312 313 313 312 312 302 307 313 320 319 311 311 315 315 315 314 309 307 307 303 301 301 298 304 303 304 303 298 304 307 307 307 308 309 310 312
315 314 314 314 314 313 313 312 314 312 314 314 312 309 303 315 308 315 319 310 311 313 314 313 312 307 305 301 299 300 295 296 298 303 302 302 299 304 308 308 307 309 310 310 312
314 314 313 314 314 313 312 312 314 315 315 314 312 306 310 304 309 313 318 313 310 311 309 308 307 303 302 300 293 296 295 296 296 301 302 301 301 305 307 307 308 308 309 310 311
313 313 313 313 313 312 311 316 312 310 312 308 308 306 307 313 315 311 315 311 311 308 302 305 300 297 300 301 300 298 297 296 299 302 301 300 301 304 307 307 307 309 310 311 312
311 312 313 312 312 310 313 307 310 311 305 311 311 310 311 312 306 310 314 306 305 300 303 300 296 302 302 301 299 298 296 297 300 302 301 300 300 304 306 307 308 308 309 310 312
310 311 312 312 311 310 311 311 316 314 304 305 308 308 309 311 307 307 309 307 303 300 301 298 300 301 301 299 297 298 296 297 297 300 302 300 299 302 306 307 308 309 311 311 312
309 310 311 310 308 312 309 315 316 315 301 300 304 307 309 310 304 312 312 307 302 299 300 299 303 300 298 297 299 295 301 299 297 297 293 301 291 300 303 304 306 308 310 310 311
309 310 310 309 310 309 311 314 317 315 291 304 304 313 309 304 306 307 312 306 300 300 300 297 298 298 297 298 301 298 301 299 299 297 297 297 294 299 303 301 305 307 307 309 311
309 310 309 312 312 313 314 314 315 299 288 299 304 303 301 304 302 306 307 308 307 301 302 301 304 301 301 302 301 302 300 300 300 298 291 296 295 296 300 301 304 306 307 307 310
309 309 309 314 310 313 314 313 299 292 301 297 298 301 300 299 300 301 302 301 299 294 295 299 300 303 303 299 302 301 298 291 290 291 290 299 295 297 302 304 304 303 305 308 310
308 307 308 312 315 315 314 305 291 295 297 301 300 300 298 298 297 298 297 297 302 301 296 294 292 300 302 300 299 300 299 292 285 288 291 297 292 297 303 306 306 305 307 308 309
306 315 313 314 317 316 309 296 295 297 299 298 299 296 298 298 298 298 298 297 298 300 294 293 293 300 301 303 302 298 295 301 294 295 291 294 298 302 303 302 302 303 305 306 308
308 311 311 315 318 314 303 295 298 302 302 301 295 297 293 295 296 295 295 299 298 301 303 298 292 300 300 302 302 299 302 294 294 285 284 291 292 293 298 299 300 301 303 306 307
310 308 313 316 316 309 300 300 300 304 304 300 298 297 297 296 297 295 295 298 300 300 301 299 296 296 298 296 295 297 295 296 296 293 286 285 290 299 297 300 300 302 304 305 306
309 305 314 316 307 308 303 300 298 301 304 302 302 300 297 297 296 295 295 297 302 301 295 299 296 291 294 300 300 298 296 296 291 289 292 290 290 302 300 301 301 302 304 305 308
304 305 315 314 302 304 302 300 301 300 301 300 298 300 301 297 292 297 297 302 301 300 297 299 294 289 291 296 298 294 297 297 296 295 290 287 290 301 301 301 303 303 304 305 308
305 301 306 307 306 300 297 298 297 301 299 301 299 299 296 295 297 294 296 299 300 298 299 300 295 291 288 291 294 291 294 295 294 291 291 291 293 296 299 300 302 303 305 306 308
305 298 300 297 300 298 298 297 294 293 299 300 297 295 292 289 291 292 294 296 300 301 300 297 290 293 294 294 294 292 292 293 292 293 290 292 293 296 299 300 301 304 305 306 307
302 299 304 299 296 296 295 294 293 293 294 293 293 295 294 291 291 289 292 293 293 296 294 297 290 292 289 293 292 289 291 292 293 293 293 293 293 300 302 302 303 304 305 305 306
307 306 302 295 293 293 294 293 293 293 296 298 295 293 291 293 298 298 299 297 295 292 292 292 291 289 286 290 289 285 290 292 292 294 293 289 295 300 300 300 302 304 305 304 304
Wind_Speed
16 14 13 13 12 12 10 10 10 10 10 9 9 11 11 11 14 11 12 1 4 3 6 8 9 10 8 6 7 5 9 13 16 13 12 6 11 6 5 12 11 8 11 10 12
17 16 15 12 12 11 11 10 9 10 10 9 9 10 10 10 13 15 6 3 8 11 10 11 12 13 9 10 7 11 12 16 8 11 11 9 10 9 9 13 13 14 12 11 11
17 17 15 14 12 11 10 9 9 9 9 9 8 8 8 11 9 3 9 12 9 13 7 5 10 11 10 9 10 11 14 13 7 12 11 13 12 10 11 14 13 12 12 13 12
18 16 15 14 13 11 10 9 8 8 8 8 7 7 7 6 0 6 11 13 11 11 11 10 12 12 10 12 12 9 14 10 10 9 13 15 11 13 12 12 12 14 12 12 13
18 18 17 14 13 12 10 9 8 8 7 7 6 6 10 8 2 8 14 13 14 10 10 11 11 10 12 11 10 14 10 11 12 12 13 11 16 14 14 8 12 9 11 12 11
18 19 18 17 14 12 10 9 8 7 7 7 5 7 8 7 4 10 12 14 11 12 9 9 7 6 5 7 15 7 9 10 9 12 11 12 15 14 7 6 9 12 11 12 10
19 19 17 18 17 14 11 9 8 7 8 6 4 8 7 4 2 9 11 8 10 8 9 6 4 10 8 7 4 6 10 12 13 13 12 9 15 17 10 6 7 8 8 7 8
19 18 18 18 17 17 13 12 10 9 7 6 5 6 7 3 4 10 10 7 8 5 2 3 5 3 7 5 7 10 8 12 8 7 7 8 11 7 1 7 8 9 8 8 7
21 20 19 19 18 17 15 14 11 8 7 7 8 7 2 7 9 12 12 10 11 8 5 2 8 5 8 12 11 11 12 10 6 7 5 10 8 6 8 10 10 10 11 10 9
23 21 21 20 19 15 9 12 7 13 8 7 5 7 7 6 11 10 11 7 11 11 8 10 9 11 12 11 13 12 12 8 10 7 9 11 15 13 8 11 10 11 10 12 13
21 23 23 24 20 18 7 5 7 8 8 8 1 5 5 5 9 12 13 11 10 13 14 12 11 13 14 11 10 7 8 11 9 8 12 14 15 13 13 14 15 14 12 12 13
22 22 23 24 25 9 7 5 4 6 9 12 12 12 8 0 8 11 13 13 12 15 14 8 15 14 8 8 10 11 13 13 11 11 10 15 18 15 15 16 15 12 13 13 12
21 20 21 22 23 5 7 9 1 5 6 1 3 5 8 12 7 15 18 17 13 15 14 17 1 4 13 12 14 14 14 12 13 13 13 18 20 20 15 13 11 13 11 12 12
21 22 19 23 8 6 8 1 5 4 6 7 5 5 6 11 8 8 15 13 9 15 14 12 16 13 9 12 13 14 12 12 12 13 13 3 14 17 13 9 9 12 12 8 12
23 23 19 11 10 5 6 6 4 5 5 4 6 6 6 13 6 13 14 11 13 9 9 4 7 12 15 16 12 13 5 11 13 16 18 18 14 14 7 14 13 8 7 10 10
25 25 20 6 8 9 8 8 5 8 2 5 5 5 8 9 4 6 9 10 6 11 13 17 3 6 10 5 8 10 11 16 16 13 17 20 19 13 8 3 12 12 12 9 11
30 27 8 3 3 3 5 5 7 6 3 4 4 0 1 5 6 5 11 16 11 11 15 17 18 17 11 14 14 12 14 13 16 15 15 13 9 12 13 10 12 13 15 11 13
31 22 4 4 7 6 5 7 6 3 3 3 2 2 1 4 3 3 4 11 15 17 14 13 12 14 6 14 16 17 15 13 17 15 14 11 12 8 2 10 10 8 6 8 12
29 2 3 8 2 3 6 6 5 4 3 3 2 4 6 5 5 7 10 14 9 4 13 10 13 4 3 6 8 9 12 12 18 18 18 16 21 18 11 7 8 5 7 11 13
7 3 8 9 2 5 6 3 1 5 5 4 8 2 6 3 8 2 6 5 17 15 8 9 13 13 4 5 6 10 8 9 8 9 17 10 13 13 7 6 5 11 15 11 14
6 4 7 9 4 6 5 5 2 5 6 5 5 8 8 10 11 9 8 10 7 12 10 12 13 15 7 12 15 9 11 11 12 11 10 16 8 7 2 13 14 14 11 17 18
5 3 7 7 5 1 3 4 2 4 3 4 6 7 9 8 11 13 16 8 3 8 9 11 8 11 16 12 7 12 17 15 9 10 10 13 15 17 7 8 5 13 16 17 15
7 4 5 7 3 1 1 2 3 5 5 4 3 4 4 7 5 10 12 10 11 15 7 6 8 10 9 12 7 14 15 15 18 17 20 19 12 8 6 12 17 20 18 15 11
4 3 3 5 3 4 4 2 3 5 7 5 4 3 5 7 8 6 7 7 7 2 7 6 13 13 12 12 9 11 13 16 17 14 19 21 28 22 22 19 19 19 18 14 10
4 4 3 4 3 6 3 2 5 3 3 3 2 1 2 2 6 10 11 16 15 17 16 5 10 15 17 20 19 20 21 21 23 23 25 23 27 24 22 21 19 18 15 14 14
3 4 0 4 5 6 4 1 3 3 2 2 5 6 9 7 8 10 10 9 7 3 4 7 7 13 17 14 15 20 22 22 23 23 26 27 28 24 22 14 16 15 17 18 17
2 3 3 4 2 4 1 3 1 5 5 7 3 5 7 12 13 13 14 13 8 3 5 6 6 6 10 11 11 15 18 17 17 20 22 23 22 16 18 18 18 20 20 20 21
Wind_Direction
345 340 339 330 326 319 314 300 292 292 292 296 303 306 304 301 288 245 246 184 173 217 217 151 170 180 194 184 218 239 240 238 228 238 241 247 237 182 288 272 278 282 292 304 326
345 344 339 337 329 323 315 308 300 293 294 298 304 300 298 307 285 261 235 144 213 203 194 177 163 173 183 199 200 218 229 238 235 240 254 249 255 274 282 273 270 272 269 275 295
349 344 342 337 333 327 320 310 306 301 299 300 297 293 290 288 264 167 151 182 192 188 202 188 166 184 184 188 192 205 241 241 230 245 262 269 272 261 262 269 271 288 293 284 287
349 348 345 340 332 326 320 311 302 292 289 288 294 299 295 267 236 54 144 165 174 198 178 168 179 188 191 199 188 220 236 257 258 260 255 264 277 262 257 271 291 280 283 286 276
341 344 347 341 335 323 315 309 301 295 294 296 291 288 262 228 267 80 141 154 170 184 188 186 191 203 204 199 191 227 222 232 244 254 265 281 270 274 272 274 268 274 282 276 273
339 341 342 344 336 326 310 299 286 282 276 271 275 267 254 241 92 137 152 165 176 195 185 198 203 217 186 196 214 189 236 241 247 251 252 255 268 259 251 262 262 279 273 277 276
340 340 337 340 338 325 312 292 277 255 253 265 257 253 257 286 81 161 170 186 174 182 167 162 181 203 162 172 181 195 236 223 244 250 251 281 262 250 255 276 265 275 288 285 287
338 338 339 335 333 329 313 304 280 250 230 215 214 243 266 128 166 189 184 162 180 173 148 144 199 198 244 105 183 227 242 247 167 217 208 224 264 136 253 213 273 281 278 276 278
336 336 337 336 333 330 315 310 283 210 190 174 204 245 218 131 205 190 195 182 172 190 188 164 219 232 188 215 211 200 253 208 233 212 239 219 278 150 269 285 285 278 275 267 273
333 335 334 334 333 330 315 316 135 158 171 192 260 246 217 195 159 161 183 196 179 172 180 206 210 218 221 219 235 236 223 227 250 173 217 256 263 266 261 259 267 272 265 267 270
333 332 333 332 331 321 260 186 200 183 209 252 195 299 136 113 152 180 170 177 183 200 209 205 228 221 225 229 285 270 264 259 256 266 267 265 270 273 270 272 274 272 269 268 270
328 333 331 330 332 341 209 240 3 358 292 224 252 248 268 105 181 171 180 190 198 210 211 192 232 248 247 243 236 239 253 253 263 260 272 270 269 269 265 269 269 276 278 278 295
325 327 330 330 328 236 266 267 266 321 267 147 186 215 204 208 206 170 192 203 204 216 206 237 127 310 213 216 232 237 251 267 275 290 275 264 266 255 236 227 261 264 270 283 298
321 319 329 334 280 339 274 176 245 292 270 132 177 131 171 192 219 197 207 196 215 231 222 250 246 220 222 239 227 250 233 250 270 271 276 146 288 287 264 266 242 253 264 312 311
315 313 317 321 295 256 26 332 315 220 259 111 106 125 158 194 99 180 195 212 236 199 210 204 219 222 233 240 224 257 292 265 278 276 281 267 262 267 245 222 258 267 279 297 313
313 316 320 244 209 268 302 305 228 229 173 108 118 148 165 193 144 137 188 229 284 246 225 269 141 272 259 273 233 270 268 257 256 263 259 263 253 267 258 306 292 306 311 299 309
323 327 315 261 34 350 297 217 223 260 136 94 62 359 115 182 199 175 185 203 225 213 231 238 238 236 235 258 229 240 258 266 261 247 254 259 258 271 294 286 294 313 305 314 311
324 319 150 296 303 309 240 221 253 59 21 74 320 138 236 17 140 13 240 238 216 254 272 279 257 219 228 239 269 270 251 259 273 271 285 296 259 263 110 287 291 313 292 301 325
313 305 359 14 21 220 251 231 11 11 15 327 272 267 215 218 314 336 304 290 314 267 252 266 245 133 267 271 262 259 240 285 285 281 270 268 259 250 213 258 263 239 273 297 313
311 294 37 351 281 254 255 353 336 11 324 301 285 221 266 253 208 221 239 226 240 272 302 283 282 258 160 226 214 259 343 243 231 272 270 257 287 280 243 268 277 298 297 299 302
270 234 32 350 251 232 275 41 5 41 340 316 302 286 275 271 264 219 224 221 228 251 233 255 257 263 201 229 255 207 229 235 288 263 274 286 270 95 297 280 292 291 288 301 315
295 232 16 332 227 258 298 2 308 348 326 280 286 275 266 277 268 252 240 265 317 335 295 299 296 266 264 273 241 258 278 269 236 258 236 256 264 277 317 313 299 276 287 311 311
337 321 12 303 281 137 54 272 331 339 330 319 300 299 303 270 275 277 249 265 280 238 234 215 229 254 244 229 238 255 258 246 263 266 263 268 263 268 266 235 268 299 300 300 302
311 301 59 47 64 340 344 312 305 347 296 281 267 246 272 260 226 261 261 283 267 260 3 310 263 256 271 285 302 281 279 273 257 253 266 263 280 282 283 291 303 309 305 298 290
4 70 36 354 53 346 292 325 293 332 6 353 276 29 50 306 260 239 252 266 261 274 282 275 251 258 267 276 274 274 271 261 259 259 259 276 281 288 298 301 309 312 300 295 283
355 350 338 342 308 293 153 153 327 13 279 257 261 311 305 239 240 289 310 308 287 270 244 231 260 262 272 271 270 276 272 266 261 266 270 276 276 280 286 305 295 292 291 290 294
111 139 303 131 298 276 352 23 220 311 262 249 346 310 281 282 299 276 273 267 240 233 237 233 251 258 265 283 295 271 263 262 261 265 269 273 286 312 303 303 305 307 310 303 295